CW8310 Weather Reports


time (UTC)temp
C
wind
direction
speed
KPH
gust
KPH
rain 1hr
cm
rain 24hr
cm
rain mn
cm
humidity
%
barometer
mb
20260504214506 20 0.0 0.0 0.00 0.00 0.00 48 1011.4
20260504214004 20 0.0 0.0 0.00 0.00 0.00 47 1011.4
20260504213505 20 0.0 0.0 0.00 0.00 0.00 48 1011.4
20260504213014 20 0.0 0.0 0.00 0.00 0.00 49 1011.5
20260504212509 20 0.0 0.0 0.00 0.00 0.00 50 1011.4
20260504212009 20 0.0 0.0 0.00 0.00 0.00 49 1011.4
20260504211516 20 0.0 0.0 0.00 0.00 0.00 49 1011.4
20260504211004 20 0.0 0.0 0.00 0.00 0.00 48 1011.4
20260504210507 20 0.0 0.0 0.00 0.00 0.00 49 1011.3
20260504210022 21 0.0 0.0 0.00 0.00 0.00 48 1011.4
20260504205510 21 0.0 0.0 0.00 0.00 0.00 48 1011.3
20260504205010 21 0.0 0.0 0.00 0.00 0.00 47 1011.3
20260504204518 21 0.0 0.0 0.00 0.00 0.00 46 1011.4
20260504204011 21 0.0 0.0 0.00 0.00 0.00 47 1011.3
20260504203503 21 0.0 0.0 0.00 0.00 0.00 46 1011.3
20260504203019 21 0.0 0.0 0.00 0.00 0.00 48 1011.3
20260504202513 21 0.0 0.0 0.00 0.00 0.00 46 1011.4
20260504202006 22 0.0 0.0 0.00 0.00 0.00 33 1011.3
20260504201511 23 0.0 0.0 0.00 0.00 0.00 33 1011.2
20260504201007 22 0.0 0.0 0.00 0.00 0.00 34 1011.3
20260504200511 22 0.0 0.0 0.00 0.00 0.00 35 1011.3
20260504200021 22 0.0 0.0 0.00 0.00 0.00 36 1011.2
20260504195507 23 0.0 0.0 0.00 0.00 0.00 35 1011.4
20260504195007 22 0.0 0.0 0.00 0.00 0.00 35 1011.4
20260504194536 22 0.0 0.0 0.00 0.00 0.00 34 1011.4
20260504194006 22 0.0 0.0 0.00 0.00 0.00 34 1011.5
20260504193510 23 0.0 0.0 0.00 0.00 0.00 34 1011.5
20260504193023 23 0.0 0.0 0.00 0.00 0.00 33 1011.5
20260504192509 22 0.0 0.0 0.00 0.00 0.00 34 1011.5
20260504192004 22 0.0 0.0 0.00 0.00 0.00 33 1011.7
20260504191511 22 0.0 0.0 0.00 0.00 0.00 34 1011.9
20260504191009 22 0.0 0.0 0.00 0.00 0.00 37 1011.9
20260504190505 22 0.0 0.0 0.00 0.00 0.00 34 1012.0
20260504190017 22 0.0 0.0 0.00 0.00 0.00 34 1012.2
20260504185509 22 0.0 0.0 0.00 0.00 0.00 34 1012.3
20260504185008 22 0.0 0.0 0.00 0.00 0.00 34 1012.3
20260504184514 22 0.0 0.0 0.00 0.00 0.00 33 1012.4
20260504184008 23 0.0 0.0 0.00 0.00 0.00 32 1012.4
20260504183509 22 0.0 0.0 0.00 0.00 0.00 38 1012.4
20260504183026 22 0.0 0.0 0.00 0.00 0.00 35 1012.6
20260504182509 22 0.0 0.0 0.00 0.00 0.00 35 1012.7
20260504182011 22 0.0 0.0 0.00 0.00 0.00 35 1012.7
20260504181526 22 0.0 0.0 0.00 0.00 0.00 37 1012.8
20260504181010 22 0.0 0.0 0.00 0.00 0.00 36 1012.9
20260504180504 22 0.0 0.0 0.00 0.00 0.00 37 1013.1
20260504180019 22 0.0 0.0 0.00 0.00 0.00 35 1013.1
20260504175507 22 0.0 0.0 0.00 0.00 0.00 35 1013.1
20260504175008 21 0.0 0.0 0.00 0.00 0.00 39 1013.1
20260504174522 21 0.0 0.0 0.00 0.00 0.00 36 1013.2
20260504174007 22 0.0 0.0 0.00 0.00 0.00 37 1013.4
20260504173510 22 0.0 0.0 0.00 0.00 0.00 39 1013.3
20260504173021 22 0.0 0.0 0.00 0.00 0.00 37 1013.4
20260504172510 21 0.0 0.0 0.00 0.00 0.00 38 1013.4
20260504172009 21 0.0 0.0 0.00 0.00 0.00 36 1013.5
20260504171518 21 0.0 0.0 0.00 0.00 0.00 39 1013.6
20260504171014 21 0.0 0.0 0.00 0.00 0.00 41 1013.6
20260504170508 21 0.0 0.0 0.00 0.00 0.00 39 1013.8
20260504151003 18 0.0 0.0 0.00 0.00 0.00 49 1014.9
20260504150504 18 0.0 0.0 0.00 0.00 0.00 46 1015.0
20260504141009 17 0.0 0.0 0.00 0.00 0.00 44 1015.3
20260504140507 17 0.0 0.0 0.00 0.00 0.00 44 1015.3
20260504130508 15 0.0 0.0 0.00 0.00 0.00 58 1015.8
20260504110508 8 0.0 0.0 0.00 0.00 0.00 77 1016.7
20260504100505 8 0.0 0.0 0.00 0.00 0.00 74 1016.5
20260504082008 8 0.0 0.0 0.00 0.00 0.00 68 1016.4
20260504081525 8 0.0 0.0 0.00 0.00 0.00 69 1016.4
20260504081011 8 0.0 0.0 0.00 0.00 0.00 67 1016.3
20260504080509 8 0.0 0.0 0.00 0.00 0.00 67 1016.2
20260504050506 7 0.0 0.0 0.00 0.00 0.00 66 1015.6
20260504050005 7 0.0 0.0 0.00 0.00 0.00 64 1015.6
20260504045503 7 0.0 0.0 0.00 0.00 0.00 66 1015.6
20260504045003 7 0.0 0.0 0.00 0.00 0.00 67 1015.5
20260504044505 7 0.0 0.0 0.00 0.00 0.00 65 1015.5
20260504044005 7 0.0 0.0 0.00 0.00 0.00 65 1015.5
20260504043504 7 0.0 0.0 0.00 0.00 0.00 65 1015.4
20260504043010 7 0.0 0.0 0.00 0.00 0.00 64 1015.4
20260504042508 8 0.0 0.0 0.00 0.00 0.00 64 1015.4
20260504042003 8 0.0 0.0 0.00 0.00 0.00 64 1015.4
20260504041508 8 0.0 0.0 0.00 0.00 0.00 63 1015.4
20260504041008 8 0.0 0.0 0.00 0.00 0.00 62 1015.3
20260504040508 8 0.0 0.0 0.00 0.00 0.00 62 1015.4
20260504040008 8 0.0 0.0 0.00 0.00 0.00 62 1015.3
20260504035504 8 0.0 0.0 0.00 0.00 0.00 64 1015.2
20260504035004 8 0.0 0.0 0.00 0.00 0.00 64 1015.1
20260504034504 8 0.0 0.0 0.00 0.00 0.00 64 1015.1
20260504034004 8 0.0 0.0 0.00 0.00 0.00 62 1015.1
20260504033503 8 0.0 0.0 0.00 0.00 0.00 61 1015.1
20260504033009 8 0.0 0.0 0.00 0.00 0.00 63 1015.1
20260504032506 8 0.0 0.0 0.00 0.00 0.00 63 1015.1
20260504032005 9 0.0 0.0 0.00 0.00 0.00 61 1015.1
20260504031513 9 0.0 0.0 0.00 0.00 0.00 62 1015.1
20260504031007 9 0.0 0.0 0.00 0.00 0.00 59 1015.1
20260504030506 9 0.0 0.0 0.00 0.00 0.00 59 1015.0
20260504030012 9 0.0 0.0 0.00 0.00 0.00 55 1015.0
20260504025508 10 0.0 0.0 0.00 0.00 0.00 56 1015.0
20260504025004 10 0.0 0.0 0.00 0.00 0.00 54 1015.0
20260504024509 10 0.0 0.0 0.00 0.00 0.00 53 1014.9
20260504024004 10 0.0 0.0 0.00 0.00 0.00 54 1014.9
20260504023504 10 0.0 0.0 0.00 0.00 0.00 54 1014.9
20260504023006 10 0.0 0.0 0.00 0.00 0.00 54 1014.9
20260504022504 10 0.0 0.0 0.00 0.00 0.00 55 1014.9
20260504022006 10 0.0 0.0 0.00 0.00 0.00 55 1014.9
20260504021510 10 0.0 0.0 0.00 0.00 0.00 55 1014.9
20260504021005 10 0.0 0.0 0.00 0.00 0.00 55 1014.9
20260504020506 10 0.0 0.0 0.00 0.00 0.00 55 1015.0
20260504020012 10 0.0 0.0 0.00 0.00 0.00 55 1014.9
20260504015504 10 0.0 0.0 0.00 0.00 0.00 53 1014.9
20260504015005 10 0.0 0.0 0.00 0.00 0.00 54 1014.9
20260504014519 10 0.0 0.0 0.00 0.00 0.00 55 1014.9
20260504014009 10 0.0 0.0 0.00 0.00 0.00 53 1014.9
20260504013505 10 0.0 0.0 0.00 0.00 0.00 55 1014.7
20260504013017 10 0.0 0.0 0.00 0.00 0.00 55 1014.8
20260504012505 10 0.0 0.0 0.00 0.00 0.00 54 1014.7
20260504012005 10 0.0 0.0 0.00 0.00 0.00 53 1014.7
20260504011510 10 0.0 0.0 0.00 0.00 0.00 53 1014.6
20260504011006 11 0.0 0.0 0.00 0.00 0.00 53 1014.5
20260504010505 11 0.0 0.0 0.00 0.00 0.00 51 1014.3
20260504010007 11 0.0 0.0 0.00 0.00 0.00 52 1014.2
20260504005507 11 0.0 0.0 0.00 0.00 0.00 51 1014.1
20260504005007 11 0.0 0.0 0.00 0.00 0.00 52 1014.0
20260504004521 11 0.0 0.0 0.00 0.00 0.00 52 1014.0
20260504004006 11 0.0 0.0 0.00 0.00 0.00 51 1014.1
20260504003508 11 0.0 0.0 0.00 0.00 0.00 50 1014.0
20260504003020 11 0.0 0.0 0.00 0.00 0.00 51 1013.8
20260504002505 11 0.0 0.0 0.00 0.00 0.00 50 1013.7
20260504002009 12 0.0 0.0 0.00 0.00 0.00 50 1013.7
20260504001522 12 0.0 0.0 0.00 0.00 0.00 48 1013.6
20260504001009 12 0.0 0.0 0.00 0.00 0.00 46 1013.5
20260504000508 12 0.0 0.0 0.00 0.00 0.00 46 1013.5
20260504000011 12 0.0 0.0 0.00 0.00 0.00 45 1013.5
20260503235504 12 0.0 0.0 0.00 0.00 0.00 45 1013.4
20260503235004 13 0.0 0.0 0.00 0.00 0.00 41 1013.4
20260503234514 13 0.0 0.0 0.00 0.00 0.00 42 1013.4
20260503234005 13 0.0 0.0 0.00 0.00 0.00 38 1013.3
20260503233509 13 0.0 0.0 0.00 0.00 0.00 38 1013.2
20260503233012 13 0.0 0.0 0.00 0.00 0.00 37 1013.2
20260503232509 13 0.0 0.0 0.00 0.00 0.00 37 1013.2
20260503232008 13 0.0 0.0 0.00 0.00 0.00 36 1013.3
20260503231541 14 0.0 0.0 0.00 0.00 0.00 37 1013.3
20260503231007 14 0.0 0.0 0.00 0.00 0.00 36 1013.2
20260503230508 14 0.0 0.0 0.00 0.00 0.00 37 1013.2
20260503230024 14 0.0 0.0 0.00 0.00 0.00 35 1013.2
20260503225505 14 0.0 0.0 0.00 0.00 0.00 34 1013.1
20260503225009 14 0.0 0.0 0.00 0.00 0.00 35 1013.1
20260503224504 15 0.0 0.0 0.00 0.00 0.00 34 1013.1
20260503224004 15 0.0 0.0 0.00 0.00 0.00 33 1013.0
20260503223503 15 0.0 0.0 0.00 0.00 0.00 33 1013.1
20260503223023 15 0.0 0.0 0.00 0.00 0.00 34 1013.0
20260503222504 15 0.0 0.0 0.00 0.00 0.00 32 1012.9
20260503222008 15 0.0 0.0 0.00 0.00 0.00 32 1012.9
20260503221519 15 0.0 0.0 0.00 0.00 0.00 32 1013.0
20260503221010 15 0.0 0.0 0.00 0.00 0.00 33 1013.0
20260503220506 15 0.0 0.0 0.00 0.00 0.00 32 1013.0
20260503220007 15 0.0 0.0 0.00 0.00 0.00 33 1012.9
20260503215505 15 0.0 0.0 0.00 0.00 0.00 32 1013.1
20260503215006 15 0.0 0.0 0.00 0.00 0.00 32 1012.9